Other Public Products
Issued by NWS Grand Forks, ND

Home | Current Version | Previous Version | Graphics & Text | Print | Product List | Glossary On
Versions: 1 2 3 4 5 6 7 8 9 10 11 12 13 14 15 16 17 18 19 20 21 22 23 24 25 26 27 28 29 30 31 32 33 34 35 36 37 38 39 40 41 42 43 44 45 46 47 48 49 50
000
FPUS83 KFGF 251910
OPUFGF
PRAIRIE TO PINES WEATHER ROUNDUP
NATIONAL WEATHER SERVICE EASTERN NORTH DAKOTA/GRAND FORKS ND
200 PM CDT SAT APR 25 2015

 **SATELLITE DATA USED TO AUGMENT SKY COVER AT AUTOMATED STATIONS**
 *****  WEATHER ACROSS EASTERN NORTH DAKOTA  *****

CITY           SKY/WX    TMP DP  RH WIND       PRES   REMARKS
GRAND FORKS    MOSUNNY   58  36  43 VRB3      29.88F
GRAND FORKS AF CLOUDY    57  38  48 SE8       29.88F
GRAND CITY NWS   N/A     59 N/A N/A E1          N/A
BUXTON         NOT AVBL
DEVILS LAKE    PTSUNNY   52  37  58 SE20      29.86S
FARGO          CLOUDY    52  38  58 SE12      29.88F
WAHPETON ARPT  CLOUDY    50  36  57 E10       29.88F
$$

 *****  WEATHER ACROSS CENTRAL AND WESTERN NORTH DAKOTA  *****

CITY           SKY/WX    TMP DP  RH WIND       PRES   REMARKS
JAMESTOWN      CLOUDY    47  40  76 E10       29.85S
BISMARCK       CLOUDY    49  41  74 E14       29.82R
MINOT          CLOUDY    55  38  52 E17       29.80S
MINOT AFB      CLOUDY    55  43  63 SE18      29.79F
GARRISON         N/A     54  41  61 SE17      29.79S
WILLISTON      CLOUDY    50  42  74 SE15      29.75R
DICKINSON      CLOUDY    47  43  86 SE16G24   29.73S
HETTINGER      CLOUDY    46  43  89 SE15      29.75S FOG
$$

 *****  OTHER OBSERVATIONS NORTHEAST NORTH DAKOTA  *****

CITY           SKY/WX    TMP DP  RH WIND       PRES   REMARKS
WALHALLA       FAIR      57  37  47 SE12G23   29.89F
LANGDON        MOCLDY    57  37  47 E20       29.87F
CAVALIER       FAIR      59  37  44 SE10G18   29.88F
GRAFTON        FAIR      59  37  44 SE13G20   29.89F
CANDO          CLOUDY    54  37  54 SE17      29.87R
FORT TOTTEN      N/A     53  38  56 SE10      29.95S
ROLLA          CLOUDY    54  37  54 SE17      29.86S
RUGBY          NOT AVBL
 ***** THE ABOVE OBSERVATIONS ARE NON NWS ARE NOT QUALITY
        CONTROLLED AND MAY MIS-REPORT RAIN FOR SNOW...
$$

 *****  OTHER OBSERVATIONS SOUTHEAST NORTH DAKOTA *****

CITY           SKY/WX    TMP DP  RH WIND       PRES   REMARKS
COOPERSTOWN    NOT AVBL
VALLEY CITY    CLOUDY    46  43  87 SE12G17   29.87S
OAKES            N/A     45  45 100 E17       29.85S
GWINNER        CLOUDY    46  46 100 E14       29.87F
SHEYENNE NWR     N/A     47  39  73 SE12      29.95S
BUFFALO        NOT AVBL
WYNDMERE       NOT AVBL
 ***** THE ABOVE OBSERVATIONS ARE NON NWS ARE NOT QUALITY
       CONTROLLED AND MAY MIS-REPORT RAIN FOR SNOW...
$$

  *****  WEATHER ACROSS NORTHERN MINNESOTA  *****

CITY           SKY/WX    TMP DP  RH WIND       PRES   REMARKS
FLAG ISLAND    SUNNY     52  27  37 SE7       29.96F
WARROAD        SUNNY     50  30  46 NE15      29.95F
ROSEAU         SUNNY     57  30  35 NE17      29.92F
HALLOCK        SUNNY     63  30  29 SE15G29   29.89F
THF RVR FALLS  MOSUNNY   57  34  41 E10G17    29.90F
HALSTAD        NOT AVBL
FOSSTON        SUNNY     61  36  39 SE7G17    29.90S
BAUDETTE       SUNNY     59  28  30 E17       29.95S
WASKISH        SUNNY     59  32  36 CALM      29.93
CROOKSTON      SUNNY     61  37  41 SE14        N/A
$$
  *****  WEATHER ACROSS CENTRAL AND WEST MINNESOTA  *****

CITY           SKY/WX    TMP DP  RH WIND       PRES   REMARKS
BEMIDJI        SUNNY     54  31  42 E14G20    29.92F
PARK RAPIDS    SUNNY     57  30  35 SE14G22   29.89F
WADENA         SUNNY     54  36  50 SE15      29.87F
DETROIT LAKES  SUNNY     55  36  47 SE14G21   29.89S
MOORHEAD       PTSUNNY   52  37  58 SE6       29.89F
FERGUS FALLS   CLOUDY    52  36  54 E8        29.89F
ELBOW LAKE     CLOUDY    48  39  70 E14       29.87F
MORRIS MN      MOSUNNY   52  43  71 E14       29.86S
STAPLES        SUNNY     54  34  47 E6        29.89F
WHEATON        PTSUNNY   45  39  81 E10       29.89S
$$
  *****  WEATHER ELSEWHERE ACROSS MINNESOTA  *****

CITY           SKY/WX    TMP DP  RH WIND       PRES   REMARKS
DULUTH         MOSUNNY   49  28  44 E20G25    29.96S
INTRNTL FALLS  SUNNY     54  25  32 E13G21    29.97F
ELY            PTSUNNY   52  18  25 NE9       29.95F
CLOQUET        CLOUDY    46  27  46 E10       29.95S
BRAINERD       CLOUDY    50  33  52 SE8       29.91F
HIBBING        MOSUNNY   53  22  29 VRB7      29.95F
ALEXANDRIA     CLOUDY    53  39  59 E15       29.87F
SAINT CLOUD    PTSUNNY   54  37  52 E13G18    29.86F
MINNEAPOLIS    MOSUNNY   57  36  45 E12G23    29.83F
$$

  *****  WEATHER ACROSS SOUTH DAKOTA  *****

CITY           SKY/WX    TMP DP  RH WIND       PRES   REMARKS
SIOUX FALLS    CLOUDY    57  43  59 E18       29.77R
BROOKINGS      CLOUDY    54  45  71 E13       29.80S
WATERTOWN      CLOUDY    46  40  79 E10       29.82S
HURON          CLOUDY    58  44  60 E10G18    29.78S
SISSETON         N/A     45  42  89 SE12      29.86S
ABERDEEN       CLOUDY    46  41  82 E10       29.83S HAZE
MITCHELL       CLOUDY    53  46  77 E12       29.78S
PIERRE         CLOUDY    50  48  93 E12       29.76S
MOBRIDGE       CLOUDY    52  44  74 E15       29.75F
RAPID CITY     CLOUDY    50  46  86 SE16      29.71F FOG
$$

  *****  SOME WEATHER IN NEARBY STATES *****

CITY           SKY/WX    TMP DP  RH WIND       PRES   REMARKS
GLASGOW MT     HVY RAIN  43  40  89 NW15      29.71S FOG
GREAT FALLS MT CLOUDY    50  29  44 MISG      29.80S
CHEYENNE WY    PTSUNNY   60  28  29 S10       29.74F
SCOTTSBLUFF NE MOSUNNY   68  37  32 W7        29.69F
OMAHA NE       CLOUDY    50  46  86 N12       29.70R FOG
DES MOINES IA  CLOUDY    49  43  80 NE14G24   29.68R
DAVENPORT IA   CLOUDY    50  44  80 E31G43    29.62R
CHICAGO IL     LGT RAIN  44  40  85 NE14      29.77F FOG
EAU CLAIRE WI  MOSUNNY   56  17  21 E13G26    29.84F
LA CROSSE WI   CLOUDY    56  36  47 NE9       29.81F
$$

  *****  SOME NATIONAL WEATHER *****

CITY           SKY/WX    TMP DP  RH WIND       PRES   REMARKS
LA GUARDIA NY  MOSUNNY   57  22  25 W13       29.76F
RALEIGH NC     LGT RAIN  56  55  97 S3        29.79F FOG
ATLANTA GA     CLOUDY    75  63  66 W9        29.74S
NEW ORLEANS LA TSTM      70  67  90 W22G30    29.92R FOG
OKLAHOMA CITY  SUNNY     80  53  39 VRB6      29.65F
ALBUQUERQUE NM PTSUNNY   60  32  34 S9        29.90F
SALT LAKE CITY PTSUNNY   57  38  48 S14       29.74F
LOS ANGELES CA CLOUDY    62  51  67 W13G22    29.99F
BOISE ID       MOSUNNY   57  28  33 NW13      29.79F
SEATTLE WA     PTSUNNY   52  37  56 S5        29.99R
$$

*** WEATHER ACROSS MANITOBA...SASKATCHEWAN AND ONTARIO ***
                ***ONTARIO***

CITY           SKY/WX    TMP DP  RH WIND       PRES   REMARKS
GERALDTON      MOSUNNY   46  18  31 N7        30.04F
THUNDER BAY    SUNNY     46  18  31 SE14      30.04F
SIOUX LOOKOUT  MOSUNNY   50  19  29 VRB8      30.03F
TORONTO        MOSUNNY   50  27  40 CALM      29.86F
BIG TROUT LK   SUNNY     36  23  60 S5        30.15F
PICKLE LAKE    MOSUNNY   45  10  24 E6        30.07F
DRYDEN         SUNNY     50  18  27 E9        30.01F
KENORA         MOSUNNY   54  28  37 SE12      29.98F
$$
                *** MANITOBA***

CITY           SKY/WX    TMP DP  RH WIND       PRES   REMARKS
BRANDON        PTSUNNY   57  37  47 E16G23    29.87F
DAUPHIN        PTSUNNY   55  36  47 E14G22    29.91F
ISLAND LAKE    MOSUNNY   50  18  27 SE7       30.08S
PILOT MOUND    NOT AVBL
THE PAS        FRZ RAIN  32  28  86 N6        30.06S
THOMPSON       PTSUNNY   30  27  86 N3        30.12R
WINNIPEG       PTSUNNY   59  34  38 E17       29.93F
LYNN LAKE      SUNNY     36   9  32 VRB6      30.10S
CHURCHILL      CLOUDY    30  14  51 SE12      30.25S WCI  21
GILLAM         PTSUNNY   45  16  31 SE8       30.13S
$$
                ***SASKATCHEWAN***

CITY           SKY/WX    TMP DP  RH WIND       PRES   REMARKS
ESTEVAN        CLOUDY    46  41  81 SE20G25   29.80R FOG
KINDERSLEY     CLOUDY    32  28  86 NE13G18   29.85S WCI  22
LLOYDMINSTER   FLURRIES  32  23  69 NE17      29.95S WCI  21
PRINCE ALBERT  LGT SNOW  34  27  75 NE15      29.98F WCI  24
REGINA         CLOUDY    46  43  87 SE18G25   29.78R


USA.gov is the U.S. government's official web portal to all federal, state and local government web resources and services.